DW2893 Weather Reports


Display with metric or nautical units.
time (UTC)temp
F
wind
direction
speed
MPH
gust
MPH
rain 1hr
in
rain 24hr
in
rain mn
in
humidity
%
barometer
mb
20260510002308 83 97 7.0 12.0 0.00 0.00 0.00 54 1006.3
20260510001808 83 94 5.0 12.0 0.00 0.00 0.00 55 1006.3
20260510001308 84 82 5.0 12.0 0.00 0.00 0.00 55 1006.3
20260509234308 85 88 4.0 9.0 0.00 0.00 0.00 57 1006.4
20260509232808 85 104 7.0 13.0 0.00 0.00 0.00 56 1006.6
20260509232308 85 92 6.0 12.0 0.00 0.00 0.00 57 1006.6
20260509231308 85 149 3.0 7.0 0.00 0.00 0.00 58 1006.4
20260509230808 85 84 4.0 12.0 0.00 0.00 0.00 58 1006.4
20260509225307 85 80 6.0 10.0 0.00 0.00 0.00 59 1006.4
20260509224808 86 118 5.0 12.0 0.00 0.00 0.00 59 1006.4
20260509224308 86 85 5.0 12.0 0.00 0.00 0.00 59 1006.4
20260509223808 86 126 3.0 12.0 0.00 0.00 0.00 60 1006.3
20260509222308 86 102 2.0 8.0 0.00 0.00 0.00 60 1006.3
20260509213808 86 90 6.0 14.0 0.00 0.00 0.00 62 1006.4
20260509211308 86 120 4.0 12.0 0.00 0.00 0.00 61 1007.0
20260509210807 86 97 4.0 12.0 0.00 0.00 0.00 62 1007.0
20260509210307 86 96 7.0 12.0 0.00 0.00 0.00 63 1007.0
20260509205308 86 111 6.0 12.0 0.00 0.00 0.00 62 1007.0
20260509203807 88 72 4.0 7.0 0.00 0.00 0.00 56 1007.1
20260509203307 88 71 1.0 5.0 0.00 0.00 0.00 56 1007.3
20260509202308 89 82 5.0 12.0 0.00 0.00 0.00 56 1007.3
20260509201308 88 9 2.0 5.0 0.00 0.00 0.00 50 1007.3
20260509200307 88 49 6.0 12.0 0.00 0.00 0.00 52 1007.3
20260509194807 87 4 2.0 8.0 0.00 0.00 0.00 53 1007.7
20260509194308 87 33 5.0 9.0 0.00 0.00 0.00 56 1007.7
20260509192307 86 40 3.0 7.0 0.00 0.00 0.00 60 1007.8
20260509191307 86 81 1.0 5.0 0.00 0.00 0.00 60 1008.0
20260509190807 86 36 5.0 12.0 0.00 0.00 0.00 59 1008.0
20260509190308 86 80 3.0 7.0 0.00 0.00 0.00 60 1008.0
20260509185807 86 69 2.0 7.0 0.00 0.00 0.00 61 1008.0
20260509185307 85 316 5.0 8.0 0.00 0.00 0.00 62 1008.3
20260509184807 84 335 4.0 8.0 0.00 0.00 0.00 62 1008.3
20260509184307 84 16 2.0 7.0 0.00 0.00 0.00 63 1008.3
20260509182807 85 9 2.0 5.0 0.00 0.00 0.00 65 1008.4
20260509182307 85 20 3.0 7.0 0.00 0.00 0.00 66 1008.4
20260509180307 83 7 3.0 7.0 0.00 0.00 0.00 68 1008.6
20260509175807 83 339 5.0 7.0 0.00 0.00 0.00 69 1008.6
20260509175307 82 44 2.0 5.0 0.00 0.00 0.00 69 1008.8
20260509173807 82 7 3.0 8.0 0.00 0.00 0.00 70 1008.8
20260509173307 81 38 2.0 7.0 0.00 0.00 0.00 71 1008.9
20260509172807 81 24 2.0 7.0 0.00 0.00 0.00 71 1008.9
20260509171306 80 0 3.0 7.0 0.00 0.00 0.00 73 1009.0
20260509170307 80 18 1.0 8.0 0.00 0.00 0.00 74 1009.1
20260509165307 79 15 3.0 7.0 0.00 0.00 0.00 74 1009.0
20260509162807 78 345 6.0 12.0 0.00 0.00 0.00 76 1009.1
20260509162307 78 8 5.0 8.0 0.00 0.00 0.00 76 1009.1
20260509161807 77 355 3.0 8.0 0.00 0.00 0.00 78 1009.1
20260509161307 77 56 3.0 10.0 0.00 0.00 0.00 78 1009.1
20260509160307 77 341 6.0 9.0 0.00 0.00 0.00 78 1009.0
20260509155307 75 347 4.0 7.0 0.00 0.00 0.00 82 1009.0
20260509154807 74 324 3.0 7.0 0.00 0.00 0.00 84 1009.1
20260509154307 73 358 4.0 8.0 0.00 0.00 0.00 84 1009.2
20260509151307 72 314 2.0 7.0 0.00 0.00 0.00 87 1009.1
20260509150807 72 340 5.0 8.0 0.00 0.00 0.00 87 1009.0
20260509150306 72 337 4.0 7.0 0.00 0.00 0.00 88 1009.0
20260509145306 71 33 2.0 9.0 0.00 0.00 0.00 88 1009.1
20260509143806 71 352 4.0 9.0 0.00 0.00 0.00 88 1009.0
20260509143307 71 322 4.0 12.0 0.00 0.00 0.00 88 1008.9
20260509140806 71 334 5.0 12.0 0.00 0.00 0.00 91 1008.7
20260509140307 71 343 4.0 8.0 0.00 0.00 0.00 92 1008.7
20260509135806 70 325 3.0 7.0 0.00 0.00 0.00 92 1008.7
20260509135306 70 340 5.0 8.0 0.00 0.00 0.00 92 1008.7
20260509134307 70 339 4.0 7.0 0.00 0.00 0.00 93 1008.6
20260509133806 69 299 3.0 6.0 0.00 0.00 0.00 93 1008.6
20260509133306 69 333 3.0 8.0 0.00 0.00 0.00 93 1008.4
20260509125806 69 296 6.0 10.0 0.00 0.02 0.00 93 1008.5
20260509124806 69 304 4.0 8.0 0.00 0.04 0.00 94 1008.3
20260509123306 69 176 1.0 2.0 0.00 0.05 0.00 94 1008.3
20260509120806 68 119 0.0 2.0 0.00 0.05 0.00 93 1008.2
20260509114806 69 119 2.0 3.0 0.00 0.05 0.00 93 1007.9
20260509113306 69 146 2.0 3.0 0.00 0.05 0.00 92 1007.6
20260509110305 69 150 2.0 2.0 0.00 0.22 0.00 91 1007.0
20260509105306 70 150 2.0 3.0 0.00 0.29 0.00 92 1007.0
20260509104806 70 151 1.0 3.0 0.00 0.46 0.00 92 1007.0
20260509104306 70 151 1.0 5.0 0.00 0.47 0.00 91 1006.8
20260509103805 70 151 2.0 5.0 0.00 0.48 0.00 91 1006.8
20260509102805 70 126 2.0 6.0 0.00 0.48 0.00 91 1006.8
20260509102306 70 129 2.0 6.0 0.00 0.49 0.00 91 1006.8
20260509100805 70 152 3.0 6.0 0.00 0.55 0.00 91 1006.7
20260509100306 70 142 3.0 8.0 0.00 0.55 0.00 91 1006.7
20260509095805 70 102 2.0 7.0 0.00 0.55 0.00 91 1006.7
20260509094805 70 77 2.0 5.0 0.00 0.55 0.00 91 1006.7
20260509093806 70 58 1.0 3.0 0.00 0.55 0.00 91 1006.6
20260509093306 70 57 2.0 3.0 0.00 0.55 0.00 91 1006.8
20260509092806 70 16 1.0 3.0 0.00 0.55 0.00 91 1006.8
20260509091305 70 18 2.0 3.0 0.00 0.55 0.00 91 1006.5
20260509090806 70 21 2.0 3.0 0.00 0.55 0.00 90 1006.5
20260509090305 70 151 1.0 6.0 0.00 0.56 0.00 90 1005.8
20260509085806 70 87 4.0 9.0 0.00 0.56 0.00 90 1005.4
20260509085306 70 111 6.0 13.0 0.00 0.56 0.00 90 1005.4
20260509084805 70 135 4.0 12.0 0.00 0.56 0.00 90 1005.4
20260509083806 70 152 6.0 12.0 0.00 0.56 0.00 90 1005.6
20260509083306 70 157 7.0 16.0 0.00 0.56 0.00 90 1005.7
20260509081805 70 162 7.0 12.0 0.00 0.57 0.00 90 1006.1
20260509081306 70 167 7.0 12.0 0.00 0.57 0.00 90 1006.1
20260509075805 70 153 5.0 8.0 0.00 0.59 0.00 89 1007.1
20260509074305 70 169 5.0 12.0 0.00 0.74 0.00 89 1007.7
20260509073805 70 165 5.0 9.0 0.00 0.74 0.00 89 1007.7
20260509072805 70 173 5.0 12.0 0.00 0.74 0.00 89 1007.9
20260509072306 70 187 3.0 7.0 0.00 0.74 0.00 89 1008.1
20260509071805 70 194 5.0 9.0 0.00 0.74 0.00 88 1008.1
20260509071305 70 202 3.0 7.0 0.00 0.74 0.00 89 1008.4
20260509070305 70 189 3.0 7.0 0.00 0.74 0.00 88 1008.3
20260509065805 70 206 2.0 6.0 0.00 0.74 0.00 88 1008.5
20260509065306 70 242 1.0 5.0 0.00 0.74 0.00 88 1008.5
20260509063305 70 207 1.0 9.0 0.00 0.74 0.00 87 1008.2
20260509061305 70 183 6.0 9.0 0.00 0.74 0.00 87 1008.1
20260509060805 70 195 4.0 7.0 0.00 0.74 0.00 86 1008.1
20260509060305 70 184 4.0 6.0 0.00 0.74 0.00 86 1008.1
20260509052307 71 208 2.0 3.0 0.00 0.74 0.00 84 1008.9
20260509050933 71 346 2.0 6.0 0.00 0.74 0.00 84 1009.8
20260509045804 71 339 5.0 7.0 0.00 0.74 0.74 83 1008.6
20260509045306 71 224 1.0 3.0 0.00 0.74 0.74 83 1008.6
20260509044805 71 178 1.0 6.0 0.00 0.74 0.74 83 1008.1
20260509044304 71 175 5.0 8.0 0.00 0.74 0.74 83 1008.1
20260509043804 71 157 5.0 6.0 0.00 0.74 0.74 82 1008.0
20260509042805 71 169 4.0 12.0 0.00 0.74 0.74 82 1007.7
20260509042307 71 180 7.0 13.0 0.00 0.74 0.74 82 1007.7
20260509035804 72 169 7.0 14.0 0.00 0.74 0.74 81 1008.0
20260509034805 72 155 5.0 12.0 0.00 0.74 0.74 81 1008.0
20260509032306 72 150 1.0 2.0 0.00 0.74 0.74 80 1008.6
20260509031304 72 148 2.0 6.0 0.00 0.74 0.74 80 1008.3
20260509024304 72 150 5.0 8.0 0.00 0.74 0.74 81 1007.9
20260509021304 72 159 6.0 12.0 0.00 0.74 0.74 80 1006.8
20260509020804 72 171 9.0 14.0 0.00 0.74 0.74 79 1006.8
20260509020304 72 161 7.0 12.0 0.00 0.74 0.74 79 1006.9
20260509015804 72 155 7.0 10.0 0.00 0.74 0.74 79 1006.8
20260509014804 73 164 6.0 9.0 0.00 0.74 0.74 78 1006.6
20260509014308 73 173 6.0 9.0 0.00 0.74 0.74 78 1006.6
20260509013809 73 168 7.0 10.0 0.00 0.74 0.74 78 1006.6
20260509013308 73 167 6.0 9.0 0.00 0.74 0.74 77 1006.7
20260509005809 73 170 6.0 12.0 0.00 0.74 0.74 76 1006.6
20260509005308 74 161 5.0 10.0 0.00 0.74 0.74 75 1006.6
20260509004808 74 166 6.0 12.0 0.00 0.74 0.74 75 1006.4
20260509003308 74 145 5.0 9.0 0.00 0.74 0.74 74 1006.2